Location: Laguna de la Cañada del Gallo
(40.3974°N, 5.2096°W)
Time: 07:03:16
(UTC+00:00)

Cosmos 2297 Rocket - Visible Passes

Search period start: 16 July 2024 00:00
Search period end: 26 July 2024 00:00
Orbit: 838 x 843 km, 71.0° (Epoch: 16 July)

Date Brightness Start Highest point End Pass type
(mag) Time Alt. Az. Time Alt. Az. Time Alt. Az.
16 Jul 5.2 01:22:18 10° NNE 01:23:53 11° NE 01:25:28 10° ENE visible
16 Jul 2.6 03:03:24 10° NNW 03:09:03 66° ENE 03:14:40 10° SSE visible
17 Jul 5.2 01:07:26 10° NNE 01:08:30 10° NE 01:09:34 10° NE visible
17 Jul 2.7 02:48:06 10° NNW 02:53:44 62° ENE 02:59:19 10° SE visible
18 Jul 2.7 02:32:48 10° NNW 02:38:25 58° ENE 02:43:59 10° SE visible
18 Jul 3.5 04:18:05 10° WNW 04:21:54 19° W 04:25:44 10° SW visible
19 Jul 2.8 02:17:31 10° NNW 02:23:06 55° ENE 02:28:32 10° SE visible
19 Jul 3.5 04:02:37 10° NW 04:06:37 20° W 04:10:11 12° SW visible
20 Jul 2.9 02:02:14 10° NNW 02:07:46 52° ENE 02:11:53 18° SE visible
20 Jul 3.4 03:47:12 10° NW 03:51:21 21° W 03:53:34 17° SW visible
21 Jul 2.9 01:46:56 10° NNW 01:52:27 49° ENE 01:55:34 24° SE visible
21 Jul 3.3 03:31:46 10° NW 03:36:04 23° W 03:37:17 21° WSW visible
22 Jul 3.0 01:31:39 10° NNW 01:37:07 46° ENE 01:39:30 30° ESE visible
22 Jul 3.3 03:16:21 10° NW 03:20:48 24° WSW 03:21:13 24° WSW visible
23 Jul 3.1 01:16:22 10° NNW 01:21:47 44° ENE 01:23:36 34° ESE visible
23 Jul 3.3 03:00:57 10° NW 03:05:20 26° W 03:05:20 26° W visible
24 Jul 3.2 01:01:05 10° N 01:06:27 42° ENE 01:07:50 36° E visible
24 Jul 3.3 02:45:33 10° NW 02:49:34 26° W 02:49:34 26° W visible
25 Jul 3.2 00:45:48 10° N 00:51:07 39° ENE 00:52:10 36° E visible
25 Jul 3.3 02:30:10 10° NW 02:33:55 27° W 02:33:55 27° W visible
